Tracking 28091 objects as of 30-Sep-2023
HD Live streaming from Space Station
objects crossing your sky now

STARLINK-5013

Track STARLINK-5013 now!
10-day predictions
STARLINK-5013 is classified as:


NORAD ID: 55492
Int'l Code: 2023-015AV
Perigee: 565.4 km
Apogee: 567.0 km
Inclination: 43.0 °
Period: 95.8 minutes
Semi major axis: 6937 km
RCS: Unknown
Launch date: February 2, 2023
Source: United States (US)
Launch site: AIR FORCE EASTERN TEST RANGE (AFETR)
Your satellite tracking list
Your tracking list is empty




NASA's NSSDC Master Catalog

Two Line Element Set (TLE):
1 55492U 23015AV  23272.07704539  .00010207  00000-0  76922-3 0  9996
2 55492  43.0020 149.0349 0001156 273.9890  86.0820 15.02554582 36333
Source of the keplerian elements: AFSPC